When you browse on this site, cookies collect data to enhance your experience and personalize the content and advertising you see.
Visit our Privacy Policy to learn more. By continuing to use the site, you agree to this use of cookies and data.

Hourly Weather Tulagino

Today, 13 August, Thursday

Time Temperature Precipitation Wind Pressure Humidity
00:00 +10°C° 0 mm 2 mps 746 mmHg 68%
01:00 +10°C° 0 mm 3 mps 746 mmHg 69%
02:00 +9°C° 0 mm 3 mps 746 mmHg 71%
03:00 +9°C° 0 mm 3 mps 746 mmHg 72%
04:00 +10°C° 0 mm 3 mps 746 mmHg 70%
05:00 +10°C° 0 mm 3 mps 745 mmHg 68%
06:00 +11°C° 0 mm 3 mps 745 mmHg 66%
07:00 +13°C° 0 mm 4 mps 745 mmHg 62%
08:00 +15°C° 0 mm 5 mps 745 mmHg 59%
09:00 +17°C° 0 mm 6 mps 745 mmHg 52%
10:00 +15°C° 0.5 mm 5 mps 745 mmHg 63%
11:00 +13°C° 0.5 mm 5 mps 745 mmHg 75%
12:00 +9°C° 0.5 mm 5 mps 745 mmHg 87%
13:00 +12°C° 0 mm 5 mps 745 mmHg 69%
14:00 +14°C° 0 mm 6 mps 745 mmHg 52%
15:00 +15°C° 0 mm 6 mps 745 mmHg 34%
16:00 +14°C° 0 mm 6 mps 746 mmHg 38%
17:00 +14°C° 0 mm 6 mps 746 mmHg 42%
18:00 +13°C° 0 mm 6 mps 746 mmHg 46%
19:00 +12°C° 0 mm 5 mps 746 mmHg 52%
20:00 +10°C° 0 mm 5 mps 746 mmHg 59%
21:00 +8°C° 0 mm 4 mps 747 mmHg 65%
22:00 +8°C° 0 mm 4 mps 747 mmHg 69%
23:00 +8°C° 0 mm 3 mps 747 mmHg 73%

Tomorrow, 14 August, Friday

Time Temperature Precipitation Wind Pressure Humidity
00:00 +8°C° 0 mm 3 mps 747 mmHg 77%
01:00 +7°C° 0 mm 3 mps 747 mmHg 80%
02:00 +5°C° 0 mm 3 mps 747 mmHg 83%
03:00 +4°C° 0 mm 3 mps 748 mmHg 87%
04:00 +4°C° 0 mm 3 mps 748 mmHg 84%
05:00 +5°C° 0 mm 3 mps 748 mmHg 82%
06:00 +5°C° 0 mm 3 mps 748 mmHg 80%
07:00 +8°C° 0 mm 3 mps 748 mmHg 69%
08:00 +10°C° 0 mm 3 mps 749 mmHg 59%
09:00 +12°C° 0 mm 3 mps 749 mmHg 49%
10:00 +14°C° 0 mm 3 mps 749 mmHg 44%
11:00 +15°C° 0 mm 4 mps 749 mmHg 39%
12:00 +17°C° 0 mm 4 mps 749 mmHg 33%
13:00 +18°C° 0 mm 4 mps 749 mmHg 33%
14:00 +18°C° 0 mm 4 mps 749 mmHg 32%
15:00 +18°C° 0 mm 4 mps 749 mmHg 31%
16:00 +18°C° 0 mm 4 mps 749 mmHg 32%
17:00 +18°C° 0 mm 4 mps 749 mmHg 34%
18:00 +17°C° 0 mm 3 mps 750 mmHg 35%
19:00 +16°C° 0 mm 3 mps 750 mmHg 41%
20:00 +13°C° 0 mm 3 mps 750 mmHg 46%
21:00 +12°C° 0 mm 2 mps 751 mmHg 51%
22:00 +10°C° 0 mm 2 mps 751 mmHg 57%
23:00 +8°C° 0 mm 2 mps 752 mmHg 62%

Day after tomorrow, 15 August, Saturday

Time Temperature Precipitation Wind Pressure Humidity
00:00 +8°C° 0 mm 1 mps 752 mmHg 68%
01:00 +7°C° 0 mm 1 mps 752 mmHg 72%
02:00 +7°C° 0 mm 1 mps 752 mmHg 76%
03:00 +6°C° 0 mm 1 mps 753 mmHg 80%
04:00 +7°C° 0 mm 1 mps 753 mmHg 78%
05:00 +7°C° 0 mm 1 mps 753 mmHg 77%
06:00 +7°C° 0 mm 1 mps 753 mmHg 75%
07:00 +10°C° 0 mm 1 mps 753 mmHg 67%
08:00 +12°C° 0 mm 1 mps 753 mmHg 58%
09:00 +14°C° 0 mm 1 mps 753 mmHg 50%
10:00 +15°C° 0 mm 2 mps 753 mmHg 44%
11:00 +17°C° 0 mm 2 mps 753 mmHg 39%
12:00 +18°C° 0 mm 3 mps 752 mmHg 33%
13:00 +18°C° 0 mm 3 mps 752 mmHg 32%
14:00 +19°C° 0 mm 3 mps 752 mmHg 31%
15:00 +19°C° 0 mm 3 mps 752 mmHg 30%
16:00 +19°C° 0 mm 3 mps 751 mmHg 31%
17:00 +18°C° 0 mm 2 mps 751 mmHg 33%
18:00 +18°C° 0 mm 2 mps 751 mmHg 34%
19:00 +15°C° 0 mm 2 mps 752 mmHg 43%
20:00 +12°C° 0 mm 1 mps 752 mmHg 51%
21:00 +9°C° 0 mm 0 mps 752 mmHg 60%
22:00 +9°C° 0 mm 1 mps 752 mmHg 63%
23:00 +9°C° 0 mm 1 mps 752 mmHg 65%

16 August, Sunday

Time Temperature Precipitation Wind Pressure Humidity
00:00 +8°C° 0 mm 1 mps 752 mmHg 68%
01:00 +7°C° 0 mm 1 mps 752 mmHg 71%
02:00 +7°C° 0 mm 1 mps 752 mmHg 73%
03:00 +6°C° 0 mm 1 mps 752 mmHg 76%
04:00 +7°C° 0 mm 1 mps 753 mmHg 74%
05:00 +7°C° 0 mm 1 mps 753 mmHg 72%
06:00 +8°C° 0 mm 1 mps 753 mmHg 70%
07:00 +9°C° 0 mm 1 mps 753 mmHg 64%
08:00 +10°C° 0 mm 2 mps 753 mmHg 59%
09:00 +13°C° 0 mm 2 mps 752 mmHg 53%
10:00 +14°C° 0 mm 2 mps 752 mmHg 49%
11:00 +15°C° 0 mm 2 mps 752 mmHg 44%
12:00 +17°C° 0 mm 2 mps 752 mmHg 39%
13:00 +17°C° 0 mm 2 mps 752 mmHg 37%
14:00 +18°C° 0 mm 2 mps 752 mmHg 35%
15:00 +19°C° 0 mm 2 mps 751 mmHg 33%
16:00 +18°C° 0 mm 2 mps 751 mmHg 36%
17:00 +18°C° 0 mm 2 mps 751 mmHg 38%
18:00 +17°C° 0 mm 2 mps 751 mmHg 40%
19:00 +16°C° 0 mm 2 mps 751 mmHg 46%
20:00 +14°C° 0 mm 2 mps 751 mmHg 52%
21:00 +12°C° 0 mm 2 mps 752 mmHg 58%
22:00 +10°C° 0 mm 2 mps 752 mmHg 62%
23:00 +9°C° 0 mm 2 mps 752 mmHg 66%

17 August, Monday

Time Temperature Precipitation Wind Pressure Humidity
00:00 +8°C° 0 mm 2 mps 752 mmHg 71%
01:00 +7°C° 0 mm 2 mps 752 mmHg 74%
02:00 +7°C° 0 mm 2 mps 752 mmHg 78%
03:00 +6°C° 0 mm 2 mps 752 mmHg 82%
04:00 +6°C° 0 mm 2 mps 752 mmHg 81%
05:00 +8°C° 0 mm 1 mps 752 mmHg 80%
06:00 +8°C° 0 mm 1 mps 752 mmHg 79%
07:00 +10°C° 0 mm 1 mps 752 mmHg 71%
08:00 +12°C° 0 mm 2 mps 752 mmHg 62%
09:00 +14°C° 0 mm 2 mps 752 mmHg 53%
10:00 +16°C° 0 mm 2 mps 752 mmHg 49%
11:00 +17°C° 0 mm 2 mps 752 mmHg 44%
12:00 +18°C° 0 mm 2 mps 751 mmHg 39%
13:00 +18°C° 0.1 mm 2 mps 751 mmHg 40%
14:00 +18°C° 0.1 mm 2 mps 751 mmHg 42%
15:00 +18°C° 0.1 mm 2 mps 751 mmHg 43%
16:00 +17°C° 0.2 mm 2 mps 751 mmHg 46%
17:00 +17°C° 0.2 mm 2 mps 751 mmHg 50%
18:00 +16°C° 0.2 mm 2 mps 750 mmHg 54%
19:00 +14°C° 0 mm 2 mps 750 mmHg 60%
20:00 +13°C° 0 mm 2 mps 750 mmHg 67%
21:00 +10°C° 0 mm 2 mps 750 mmHg 74%
22:00 +9°C° 0 mm 2 mps 750 mmHg 76%
23:00 +8°C° 0 mm 2 mps 750 mmHg 78%

18 August, Tuesday

Time Temperature Precipitation Wind Pressure Humidity
00:00 +7°C° 0 mm 2 mps 750 mmHg 80%
01:00 +7°C° 0 mm 2 mps 750 mmHg 81%
02:00 +6°C° 0 mm 2 mps 750 mmHg 83%
03:00 +6°C° 0 mm 2 mps 749 mmHg 84%
04:00 +6°C° 0 mm 2 mps 749 mmHg 82%
05:00 +6°C° 0 mm 2 mps 749 mmHg 80%
06:00 +6°C° 0 mm 2 mps 749 mmHg 77%
07:00 +9°C° 0 mm 2 mps 749 mmHg 66%
08:00 +12°C° 0 mm 2 mps 748 mmHg 55%
09:00 +14°C° 0 mm 2 mps 748 mmHg 44%
10:00 +16°C° 0 mm 2 mps 748 mmHg 41%
11:00 +17°C° 0 mm 2 mps 747 mmHg 37%
12:00 +19°C° 0 mm 3 mps 747 mmHg 33%
13:00 +19°C° 0 mm 3 mps 747 mmHg 32%
14:00 +20°C° 0 mm 3 mps 746 mmHg 32%
15:00 +20°C° 0 mm 4 mps 746 mmHg 31%
16:00 +20°C° 0 mm 3 mps 746 mmHg 33%
17:00 +19°C° 0 mm 3 mps 745 mmHg 34%
18:00 +19°C° 0 mm 3 mps 745 mmHg 36%
19:00 +17°C° 0 mm 3 mps 745 mmHg 43%
20:00 +15°C° 0 mm 2 mps 745 mmHg 49%
21:00 +12°C° 0 mm 2 mps 745 mmHg 56%
22:00 +12°C° 0 mm 2 mps 745 mmHg 57%
23:00 +10°C° 0 mm 2 mps 745 mmHg 58%
Show more